Location: Bannatyne
(13.0833°N, 59.5333°W)
Time: 22:44:56
(UTC+00:00)

EO 1 Delta rocket - Pass Details

Date: 18 October 2019
Orbit: 698 x 1791 km, 95.4° (Epoch: 15 November)

Event Time Altitude Azimuth Distance (km) Brightness Sun altitude
Rises 22:29:48 0° 162° (SSE) 3,423 7.3 -13.4°
Reaches altitude 10° 22:32:21 10° 158° (SSE) 2,376 6.4 -14.0°
Maximum altitude 22:37:19 56° 81° (E) 864 3.9 -15.2°
Drops below altitude 10° 22:41:48 10° 3° (N) 2,154 6.2 -16.3°
Sets 22:44:01 0° 359° (N) 3,074 7.1 -16.9°
